Date String (YYYY-MM-DD hh:mm:ss) UTC,Instrument flags,Ambient pressure (hPa),Sample flow (lpm),Bypass flow (lpm),Sample temperature (°C),Ambient temperature (°C),ASC tube jacket temperature (°C),LED temperature (°C),Box temperature (°C),Sample RH (%),Span deviation,Mass concentration (μg/m³),Mass concentration (μg/m³),Mass concentration (μg/m³)
DateTimeUTC,F1_M11,P_M11,Q1_M11,Q2_M11,T1_M11,T2_M11,T3_M11,T4_M11,T5_M11,U1_M11,ZSPAN_M11,X0_M11,X2_M11,X1_M11
2022-01-25 10:00:00,,0823.7,5.01,0.00,22.7,22.5,00.0,31.6,24.6,15.1,0000.0,0005.85,0003.32,0002.83
2022-01-25 10:01:00,,0823.7,5.01,0.00,22.7,22.4,00.0,31.6,24.6,15.1,0000.0,0005.96,0003.33,0002.84
2022-01-25 10:02:00,,0823.6,4.99,0.00,22.7,22.3,00.0,31.6,24.5,15.1,0000.0,0005.88,0003.30,0002.82
2022-01-25 10:03:00,,0823.6,4.99,0.00,22.7,22.2,00.0,31.6,24.5,15.1,0000.0,0005.69,0003.27,0002.81
2022-01-25 10:04:00,,0823.6,5.01,0.00,22.7,22.2,00.0,31.6,24.5,15.1,0000.0,0006.20,0003.27,0002.81
2022-01-25 10:05:00,,0823.7,5.00,0.00,22.7,22.1,00.0,31.6,24.5,15.2,0000.0,0005.57,0003.26,0002.84
2022-01-25 10:06:00,,0823.7,5.00,0.00,22.7,22.1,00.0,31.6,24.4,15.2,0000.0,0005.48,0003.25,0002.86
2022-01-25 10:07:00,,0823.7,4.99,0.00,22.7,22.0,00.0,31.6,24.4,15.2,0000.0,0005.56,0003.25,0002.87
2022-01-25 10:08:00,,0823.7,5.01,0.00,22.6,22.0,00.0,31.6,24.4,15.2,0000.0,0005.38,0003.22,0002.88
2022-01-25 10:09:00,,0823.7,4.99,0.00,22.6,21.9,00.0,31.6,24.4,15.2,0000.0,0005.42,0003.22,0002.90
2022-01-25 10:10:00,,0823.7,4.99,0.00,22.6,21.9,00.0,31.6,24.3,15.2,0000.0,0005.38,0003.22,0002.92
2022-01-25 10:11:00,,0823.7,5.01,0.00,22.6,21.9,00.0,31.6,24.3,15.2,0000.0,0005.37,0003.23,0002.95
2022-01-25 10:12:00,,0823.7,5.01,0.00,22.6,21.8,00.0,31.5,24.3,15.2,0000.0,0005.34,0003.24,0002.98
2022-01-25 10:13:00,,0823.7,4.99,0.00,22.5,21.8,00.0,31.5,24.3,15.3,0000.0,0005.61,0003.31,0003.03
2022-01-25 10:14:00,,0823.7,4.99,0.00,22.5,21.8,00.0,31.5,24.3,15.3,0000.0,0005.73,0003.35,0003.07
2022-01-25 10:15:00,,0823.7,5.01,0.00,22.5,21.7,00.0,31.5,24.2,15.3,0000.0,0006.11,0003.38,0003.11
2022-01-25 10:16:00,,0823.6,4.99,0.00,22.5,21.7,00.0,31.5,24.2,15.3,0000.0,0006.12,0003.43,0003.14
2022-01-25 10:17:00,,0823.7,5.00,0.00,22.5,21.7,00.0,31.5,24.2,15.3,0000.0,0006.08,0003.44,0003.16
2022-01-25 10:18:00,,0823.7,5.00,0.00,22.4,21.7,00.0,31.5,24.2,15.3,0000.0,0005.96,0003.45,0003.17
2022-01-25 10:19:00,,0823.7,4.99,0.00,22.4,21.7,00.0,31.5,24.2,15.3,0000.0,0006.07,0003.47,0003.19
2022-01-25 10:20:00,,0823.7,5.00,0.00,22.4,21.7,00.0,31.4,24.1,15.3,0000.0,0006.08,0003.50,0003.20
2022-01-25 10:21:00,,0823.7,5.00,0.00,22.4,21.6,00.0,31.4,24.1,15.4,0000.0,0006.09,0003.52,0003.22
2022-01-25 10:22:00,,0823.7,5.00,0.00,22.4,21.6,00.0,31.4,24.1,15.4,0000.0,0006.23,0003.56,0003.24
2022-01-25 10:23:00,,0823.7,4.99,0.00,22.4,21.6,00.0,31.4,24.1,15.4,0000.0,0006.24,0003.58,0003.24
2022-01-25 10:24:00,,0823.7,5.00,0.00,22.4,21.6,00.0,31.4,24.1,15.4,0000.0,0006.11,0003.55,0003.24
2022-01-25 10:25:00,,0823.8,5.02,0.00,22.3,21.6,00.0,31.4,24.1,15.4,0000.0,0006.04,0003.54,0003.23
2022-01-25 10:26:00,,0823.8,4.99,0.00,22.4,22.2,00.0,31.4,24.2,15.4,0000.0,0005.24,0003.54,0003.24
2022-01-25 10:27:00,,0823.8,4.99,0.00,22.5,23.0,00.0,31.5,24.5,15.3,0000.0,0004.93,0003.49,0003.24
2022-01-25 10:28:00,,0823.8,5.01,0.00,22.7,23.2,00.0,31.5,24.7,15.2,0000.0,0004.86,0003.48,0003.24
2022-01-25 10:29:00,,0823.8,4.99,0.00,22.7,23.1,00.0,31.5,24.7,15.1,0000.0,0004.97,0003.50,0003.25
2022-01-25 10:30:00,,0823.8,5.00,0.00,22.7,22.9,00.0,31.5,24.6,15.1,0000.0,0005.07,0003.51,0003.25
2022-01-25 10:31:00,,0823.8,5.00,0.00,22.7,22.7,00.0,31.5,24.6,15.1,0000.0,0005.22,0003.52,0003.24
2022-01-25 10:32:00,,0823.8,5.00,0.00,22.7,22.5,00.0,31.5,24.6,15.1,0000.0,0005.12,0003.51,0003.24
2022-01-25 10:33:00,,0823.8,5.00,0.00,22.7,22.4,00.0,31.5,24.5,15.1,0000.0,0005.10,0003.50,0003.23
2022-01-25 10:34:00,,0823.8,5.01,0.00,22.7,22.3,00.0,31.5,24.5,15.1,0000.0,0005.28,0003.51,0003.22
2022-01-25 10:35:00,,0823.8,5.00,0.00,22.7,22.2,00.0,31.5,24.5,15.1,0000.0,0005.30,0003.50,0003.22
2022-01-25 10:36:00,,0823.8,5.00,0.00,22.7,22.2,00.0,31.6,24.5,15.1,0000.0,0005.30,0003.49,0003.21
2022-01-25 10:37:00,,0823.8,4.99,0.00,22.7,22.1,00.0,31.6,24.4,15.1,0000.0,0005.21,0003.47,0003.18
2022-01-25 10:38:00,,0823.8,5.00,0.00,22.7,22.1,00.0,31.6,24.4,15.1,0000.0,0005.25,0003.47,0003.17
2022-01-25 10:39:00,,0823.8,5.01,0.00,22.6,22.0,00.0,31.6,24.4,15.1,0000.0,0005.32,0003.48,0003.16
2022-01-25 10:40:00,,0823.8,5.00,0.00,22.6,22.0,00.0,31.6,24.4,15.1,0000.0,0005.19,0003.45,0003.14
2022-01-25 10:41:00,,0823.8,4.99,0.00,22.6,22.0,00.0,31.6,24.4,15.1,0000.0,0005.31,0003.43,0003.13
2022-01-25 10:42:00,,0823.8,5.02,0.00,22.6,21.9,00.0,31.5,24.4,15.1,0000.0,0005.38,0003.41,0003.12
2022-01-25 10:43:00,,0823.8,4.99,0.00,22.6,21.9,00.0,31.5,24.3,15.1,0000.0,0005.34,0003.39,0003.10
2022-01-25 10:44:00,,0823.8,4.99,0.00,22.6,21.8,00.0,31.5,24.3,15.1,0000.0,0005.33,0003.39,0003.08
2022-01-25 10:45:00,,0823.7,5.00,0.00,22.6,21.8,00.0,31.5,24.3,15.1,0000.0,0005.13,0003.36,0003.07
2022-01-25 10:46:00,,0823.8,5.00,0.00,22.5,21.8,00.0,31.5,24.3,15.2,0000.0,0005.15,0003.34,0003.05
2022-01-25 10:47:00,,0823.8,5.01,0.00,22.5,21.8,00.0,31.5,24.3,15.2,0000.0,0005.17,0003.33,0003.05
2022-01-25 10:48:00,,0823.9,4.98,0.00,22.5,21.7,00.0,31.5,24.2,15.2,0000.0,0005.27,0003.34,0003.04
2022-01-25 10:49:00,,0823.8,5.02,0.00,22.5,21.7,00.0,31.5,24.2,15.2,0000.0,0005.55,0003.33,0003.03
2022-01-25 10:50:00,,0823.8,4.99,0.00,22.5,21.7,00.0,31.5,24.2,15.2,0000.0,0005.47,0003.31,0003.01
2022-01-25 10:51:00,,0823.8,5.00,0.00,22.5,21.7,00.0,31.5,24.2,15.2,0000.0,0005.45,0003.32,0003.01
2022-01-25 10:52:00,,0823.8,5.01,0.00,22.4,21.7,00.0,31.4,24.2,15.2,0000.0,0005.18,0003.30,0003.02
2022-01-25 10:53:00,,0823.8,5.00,0.00,22.4,21.6,00.0,31.4,24.2,15.2,0000.0,0004.91,0003.31,0003.03
2022-01-25 10:54:00,,0823.8,5.00,0.00,22.4,21.6,00.0,31.4,24.1,15.2,0000.0,0004.87,0003.30,0003.04
2022-01-25 10:55:00,,0823.8,4.99,0.00,22.4,21.6,00.0,31.4,24.1,15.2,0000.0,0004.86,0003.30,0003.04
2022-01-25 10:56:00,,0823.8,5.01,0.00,22.4,21.6,00.0,31.4,24.1,15.2,0000.0,0005.26,0003.29,0003.05
2022-01-25 10:57:00,,0823.8,5.00,0.00,22.4,21.6,00.0,31.4,24.1,15.2,0000.0,0005.46,0003.29,0003.05
2022-01-25 10:58:00,,0823.8,4.99,0.00,22.4,21.5,00.0,31.4,24.1,15.2,0000.0,0005.37,0003.28,0003.04
2022-01-25 10:59:00,,0823.9,4.99,0.00,22.4,21.8,00.0,31.4,24.1,15.2,0000.0,0005.38,0003.28,0003.03
